{"data":{"norad_id":51989,"epoch":"2026-09-20T04:26:02.622048Z","epoch_age_seconds":83390,"freshness":"FRESH","line1":"1 51989U 22025AK  26263.18475257 -.00002900  00000+0 -74749-4 0  9998","line2":"2 51989  53.1586 229.1278 0001173 101.6293 258.4841 15.34392893250654","mean_motion":15.34392893,"eccentricity":0.0001173,"inclination_deg":53.1586,"raan_deg":229.1278,"arg_perigee_deg":101.6293,"mean_anomaly_deg":258.4841,"bstar":-7.4749e-5,"rev_number":25065,"period_min":93.848192765319,"perigee_km":461.9219307524,"apogee_km":463.52679682834,"semimajor_km":6840.8613637904,"source":"CELESTRAK","updated_at":"2026-09-20T09:00:39.980817Z"}}